Regional Weather Roundup
Issued by NWS Goodland, KS

Home | Current Version | Previous Version | Graphics & Text | Print | Product List | Glossary On
Versions: 1 2 3 4 5 6 7 8 9 10 11 12 13 14 15 16 17 18 19 20 21 22 23 24 25 26 27 28 29 30 31 32 33 34 35 36 37 38 39 40 41 42 43 44 45 46 47 48 49 50
000
ASUS43 KGLD 240108
RWRGLD

GOODLAND FORECAST AREA HOURLY WEATHER ROUNDUP
NATIONAL WEATHER SERVICE GOODLAND KS
700 PM MDT THU OCT 23 2014

...OFFICIAL OBSERVATIONS...

CITY           SKY/WX    TMP DP  RH WIND       PRES   REMARKS
GOODLAND KS    CLEAR     58  52  80 S12       30.08R
HILL CITY KS   MOCLDY    62  56  80 S3        30.05R
IMPERIAL NEB   PTCLDY    61  37  41 S7        30.01S
MCCOOK NEB     PTCLDY    64  54  69 VRB6G16   30.01S
AKRON CO       CLEAR     57  33  40 S7        30.08S
BURLINGTON CO  CLEAR     58  42  55 S10       30.10R
LIMON CO       CLEAR     54  38  54 S5        30.15R
$$

...UNOFFICIAL OBSERVATIONS...

CITY           SKY/WX    TMP DP  RH WIND       PRES   REMARKS
COLBY KS       CLEAR     61  61 100 S8        30.07S
GOVE KS          N/A     60  32  34 MISG        N/A
NORTON KS      CLEAR     63  52  67 S10       30.03S
SHARON SPRINGS   N/A     58  54  86 S6          N/A
TRIBUNE KS     PTCLDY    57  57 100 SE8       30.12R
KIT CARSON CO    N/A     60  44  55 CALM        N/A
YUMA CO          N/A     56  34  43 S8          N/A
$$



USA.gov is the U.S. government's official web portal to all federal, state and local government web resources and services.